{"data":{"norad_id":58578,"intl_designator":"2023-196A","name":"QPS-SAR-5 (TSUKUYOMI-I)","alt_names":[],"object_type":"PAYLOAD","status":"ACTIVE","operator":null,"country":"JPN","launch_date":"2023-12-15","launch_site_code":"RLLB","launch_vehicle":null,"mission":null,"orbit_class":"UNKNOWN","rcs_meters":null,"size_class":null,"mass_kg":null,"dimensions":null,"purposes":[],"wikipedia_slug":null,"has_3d_model":false,"image_url":null,"decayed_at":null,"tle_current":{"epoch":"2026-09-21T22:17:47.195808Z","epoch_age_seconds":124233,"freshness":"FRESH","line1":"1 58578U 23196A   26264.92901847  .00008610  00000+0  34830-3 0  9999","line2":"2 58578  42.0102 184.1084 0027997 218.1787 141.7064 15.24524925153009","mean_motion":15.24524925,"eccentricity":0.0027997,"inclination_deg":42.0102,"raan_deg":184.1084,"arg_perigee_deg":218.1787,"mean_anomaly_deg":141.7064,"bstar":0.0003483,"rev_number":15300,"period_min":94.455654767337,"perigee_km":472.97744592071,"apogee_km":511.44728014407,"semimajor_km":6870.3493630324,"source":"CELESTRAK","updated_at":"2026-09-22T09:00:26.734954Z"}}}